Preston, Minnesota, United States (55965)
Lat: 43.67N, Lon: 92.08W
Wx Zone: MNZ095
Local Info
Past Weather Observations for Sunday, April 20, 2014

NOTE: This archive is for the closest National Weather Service station to Preston. Information may differ from the station used for current weather conditions.

Time Weather Temperature Dewpoint Humidity Pressure Winds Precip Visibility
23:52
Mostly Cloudy
59°F / 15°C 54°F / 12°C 82% 29.98 in
(1015 mb)
SW 9.2 mph
(SW 15 kph)
- 10SM
23:33
Partly Cloudy
59°F / 15°C 54°F / 12°C 82% 29.98 in
(1015 mb)
S 12.7 mph
(S 20 kph)
- 10SM
23:12
Mostly Cloudy
59°F / 15°C 54°F / 12°C 82% 29.98 in
(1015 mb)
S 12.7 mph
(S 20 kph)
- 10SM
22:52
Mostly Cloudy
59°F / 15°C 54°F / 12°C 82% 29.98 in
(1015 mb)
S 5.8 mph
(S 9 kph)
- 10SM
22:32
Mostly Cloudy
Thunder Storms
57°F / 14°C 55°F / 13°C 94% 29.98 in
(1015 mb)
SSE 3.5 mph
(SSE 6 kph)
- 7SM
22:12
Mostly Cloudy
Thunder Storms
57°F / 14°C 54°F / 12°C 88% 30.01 in
(1016 mb)
SW 4.6 mph
(SW 7 kph)
- 7SM
21:52
Clear
57°F / 14°C 55°F / 13°C 94% 29.98 in
(1015 mb)
Calm - 10SM
21:32
Clear
Thunder Storms
59°F / 15°C 55°F / 13°C 88% 29.98 in
(1015 mb)
E 3.5 mph
(E 6 kph)
- 10SM
21:12
Clear
59°F / 15°C 55°F / 13°C 88% 29.98 in
(1015 mb)
E 4.6 mph
(E 7 kph)
- 10SM
20:52
Clear
59°F / 15°C 55°F / 13°C 88% 30.01 in
(1016 mb)
SE 6.9 mph
(SE 11 kph)
- 10SM
20:32
Partly Cloudy
Thunder Storms
61°F / 16°C 55°F / 13°C 83% 30.01 in
(1016 mb)
SE 6.9 mph
(SE 11 kph)
- 10SM
20:12
Mostly Cloudy
Thunder Storms
61°F / 16°C 55°F / 13°C 83% 29.98 in
(1015 mb)
E 8.1 mph
(E 13 kph)
- 10SM
19:52
Partly Cloudy
Thunder Storms
61°F / 16°C 55°F / 13°C 83% 29.98 in
(1015 mb)
ESE 4.6 mph
(ESE 7 kph)
- 10SM
19:32
Clear
Thunder Storms
61°F / 16°C 55°F / 13°C 83% 29.98 in
(1015 mb)
E 4.6 mph
(E 7 kph)
- 10SM
19:12
Partly Cloudy
Thunder Storms
61°F / 16°C 55°F / 13°C 83% 29.98 in
(1015 mb)
ESE 3.5 mph
(ESE 6 kph)
- 10SM
18:52
Partly Cloudy
61°F / 16°C 55°F / 13°C 83% 29.98 in
(1015 mb)
E 4.6 mph
(E 7 kph)
- 10SM
18:32
Partly Cloudy
63°F / 17°C 55°F / 13°C 77% 29.98 in
(1015 mb)
E 5.8 mph
(E 9 kph)
- 10SM
18:12
Partly Cloudy
63°F / 17°C 55°F / 13°C 77% 29.98 in
(1015 mb)
E 4.6 mph
(E 7 kph)
- 10SM
17:52
Mostly Cloudy
64°F / 18°C 57°F / 14°C 78% 29.98 in
(1015 mb)
ESE 4.6 mph
(ESE 7 kph)
- 10SM
17:32
Mostly Cloudy
64°F / 18°C 55°F / 13°C 73% 29.98 in
(1015 mb)
SE 4.6 mph
(SE 7 kph)
- 10SM
17:12
Partly Cloudy
64°F / 18°C 55°F / 13°C 73% 29.98 in
(1015 mb)
E 3.5 mph
(E 6 kph)
- 10SM
16:52
Mostly Cloudy
66°F / 19°C 55°F / 13°C 68% 30.01 in
(1016 mb)
Calm - 10SM
16:32
Mostly Cloudy
66°F / 19°C 54°F / 12°C 64% 30.01 in
(1016 mb)
Calm - 7SM
16:12
Mostly Cloudy
Thunder Storms
66°F / 19°C 54°F / 12°C 64% 30.01 in
(1016 mb)
Calm - 10SM
15:52
Clear
66°F / 19°C 54°F / 12°C 64% 30.01 in
(1016 mb)
S 4.6 mph
(S 7 kph)
- 10SM
15:32
Clear
66°F / 19°C 55°F / 13°C 68% 30.01 in
(1016 mb)
S 8.1 mph
(S 13 kph)
- 10SM
15:12
Clear
64°F / 18°C 55°F / 13°C 73% 30.04 in
(1017 mb)
SW 6.9 mph
(SW 11 kph)
- 10SM
14:52
Partly Cloudy
64°F / 18°C 55°F / 13°C 73% 30.04 in
(1017 mb)
S 9.2 mph
(S 15 kph)
- 10SM
14:32
Partly Cloudy
Thunder Storms
64°F / 18°C 55°F / 13°C 73% 30.04 in
(1017 mb)
SW 6.9 mph
(SW 11 kph)
- 10SM
14:12
Overcast
63°F / 17°C 55°F / 13°C 77% 30.04 in
(1017 mb)
SW 9.2 mph
(SW 15 kph)
- 10SM
13:52
Overcast
61°F / 16°C 57°F / 14°C 88% 30.04 in
(1017 mb)
S 10.4 mph
(S 17 kph)
- 7SM
13:32
Mostly Cloudy
57°F / 14°C 54°F / 12°C 88% 30.04 in
(1017 mb)
S 8.1 mph
(S 13 kph)
- 7SM
13:12
Partly Cloudy
61°F / 16°C 55°F / 13°C 83% 30.04 in
(1017 mb)
S 12.7 mph
(S 20 kph)
- 10SM
12:52
Mostly Cloudy
57°F / 14°C 55°F / 13°C 94% 30.04 in
(1017 mb)
S 9.2 mph
(S 15 kph)
- 7SM
12:32
Mostly Cloudy
Thunder Storms
55°F / 13°C 54°F / 12°C 94% 30.04 in
(1017 mb)
S 6.9 mph
(S 11 kph)
- 5SM
12:12
Mostly Cloudy
Fog And Mist
54°F / 12°C 52°F / 11°C 94% 30.04 in
(1017 mb)
SSE 9.2 mph
(SSE 15 kph)
- 4SM
11:52
Overcast
54°F / 12°C 52°F / 11°C 94% 30.06 in
(1018 mb)
S 8.1 mph
(S 13 kph)
0.03 in
(0.76 mm)
4SM
11:32
Overcast
Thunder Storms
54°F / 12°C 52°F / 11°C 94% 30.04 in
(1017 mb)
SE 9.2 mph
(SE 15 kph)
0.02 in
(0.51 mm)
4SM
11:12
Overcast
Rain
54°F / 12°C 52°F / 11°C 94% 30.06 in
(1018 mb)
S 10.4 mph
(S 17 kph)
0.01 in
(0.25 mm)
4SM
10:52
Overcast
Fog And Mist
54°F / 12°C 52°F / 11°C 94% 30.09 in
(1019 mb)
SSE 11.5 mph
(SSE 19 kph)
0.06 in
(1.52 mm)
5SM
10:32
Overcast
Rain
54°F / 12°C 54°F / 12°C 100% 30.06 in
(1018 mb)
S 8.1 mph
(S 13 kph)
0.05 in
(1.27 mm)
3SM
10:12
Overcast
Rain
54°F / 12°C 52°F / 11°C 94% 30.09 in
(1019 mb)
SSE 4.6 mph
(SSE 7 kph)
0.03 in
(0.76 mm)
2 1/2SM
09:52
Overcast
Light Rain
54°F / 12°C 52°F / 11°C 94% 30.09 in
(1019 mb)
SSE 6.9 mph
(SSE 11 kph)
0.05 in
(1.27 mm)
2 1/2SM
09:32
Overcast
Light Rain
52°F / 11°C 50°F / 10°C 94% 30.09 in
(1019 mb)
SSE 5.8 mph
(SSE 9 kph)
0.01 in
(0.25 mm)
5SM
09:12
Overcast
52°F / 11°C 50°F / 10°C 94% 30.09 in
(1019 mb)
S 6.9 mph
(S 11 kph)
0.01 in
(0.25 mm)
7SM
08:52
Overcast
Rain
52°F / 11°C 50°F / 10°C 94% 30.09 in
(1019 mb)
S 4.6 mph
(S 7 kph)
0.07 in
(1.78 mm)
3SM
08:32
Overcast
Rain
52°F / 11°C 48°F / 9°C 88% 30.06 in
(1018 mb)
S 9.2 mph
(S 15 kph)
0.02 in
(0.51 mm)
4SM
08:12
Overcast
Light Rain
52°F / 11°C 48°F / 9°C 88% 30.06 in
(1018 mb)
S 6.9 mph
(S 11 kph)
- 10SM
07:52
Overcast
52°F / 11°C 46°F / 8°C 82% 30.09 in
(1019 mb)
S 5.8 mph
(S 9 kph)
0.10 in
(2.54 mm)
10SM
07:32
Overcast
Rain
52°F / 11°C 46°F / 8°C 82% 30.09 in
(1019 mb)
SSE 8.1 mph
(SSE 13 kph)
0.09 in
(2.29 mm)
2 1/2SM
07:12
Overcast
Rain
54°F / 12°C 45°F / 7°C 72% 30.09 in
(1019 mb)
SSE 5.8 mph
(SSE 9 kph)
0.01 in
(0.25 mm)
7SM
06:52
Overcast
Thunder Storms
54°F / 12°C 46°F / 8°C 77% 30.09 in
(1019 mb)
SE 4.6 mph
(SE 7 kph)
- 10SM
06:33
Overcast
Thunder Storms
54°F / 12°C 46°F / 8°C 77% 30.09 in
(1019 mb)
SE 4.6 mph
(SE 7 kph)
- 10SM
06:12
Overcast
Light Rain
54°F / 12°C 45°F / 7°C 72% 30.09 in
(1019 mb)
SSE 6.9 mph
(SSE 11 kph)
- 10SM
05:52
Overcast
55°F / 13°C 45°F / 7°C 67% 30.06 in
(1018 mb)
S 6.9 mph
(S 11 kph)
- 10SM
05:32
Overcast
55°F / 13°C 45°F / 7°C 67% 30.06 in
(1018 mb)
S 9.2 mph
(S 15 kph)
- 10SM
05:12
Overcast
57°F / 14°C 45°F / 7°C 63% 30.06 in
(1018 mb)
S 10.4 mph
(S 17 kph)
- 10SM
04:52
Overcast
Light Rain
57°F / 14°C 45°F / 7°C 63% 30.06 in
(1018 mb)
SSE 10.4 mph
(SSE 17 kph)
- 10SM
04:32
Overcast
Thunder Storms
59°F / 15°C 43°F / 6°C 55% 30.06 in
(1018 mb)
SSE 11.5 mph
(SSE 19 kph)
- 10SM
04:09
Overcast
59°F / 15°C 45°F / 7°C 59% 30.06 in
(1018 mb)
SSE 12.7 mph
(SSE 20 kph)
- 10SM
03:52
Overcast
57°F / 14°C 45°F / 7°C 63% 30.06 in
(1018 mb)
SSE 11.5 mph
(SSE 19 kph)
- 10SM
03:32
Overcast
59°F / 15°C 45°F / 7°C 59% 30.06 in
(1018 mb)
S 9.2 mph
(S 15 kph)
- 10SM
03:12
Overcast
59°F / 15°C 45°F / 7°C 59% 30.06 in
(1018 mb)
S 11.5 mph
(S 19 kph)
- 10SM
02:52
Overcast
57°F / 14°C 45°F / 7°C 63% 30.06 in
(1018 mb)
SSE 10.4 mph
(SSE 17 kph)
- 10SM
02:32
Overcast
59°F / 15°C 45°F / 7°C 59% 30.06 in
(1018 mb)
S 11.5 mph
(S 19 kph)
- 10SM
02:12
Mostly Cloudy
59°F / 15°C 45°F / 7°C 59% 30.06 in
(1018 mb)
S 11.5 mph
(S 19 kph)
- 10SM
01:52
Mostly Cloudy
59°F / 15°C 45°F / 7°C 59% 30.06 in
(1018 mb)
S 11.5 mph
(S 19 kph)
- 10SM
01:32
Overcast
59°F / 15°C 45°F / 7°C 59% 30.06 in
(1018 mb)
SSE 12.7 mph
(SSE 20 kph)
- 10SM
01:12
Overcast
59°F / 15°C 45°F / 7°C 59% 30.06 in
(1018 mb)
SSE 11.5 mph
(SSE 19 kph)
- 10SM
00:52
Overcast
59°F / 15°C 45°F / 7°C 59% 30.06 in
(1018 mb)
S 16.1 mph
(S 26 kph)
- 10SM
00:32
Overcast
61°F / 16°C 45°F / 7°C 55% 30.06 in
(1018 mb)
S 12.7 mph
(S 20 kph)
- 10SM
00:12
Overcast
61°F / 16°C 45°F / 7°C 55% 30.06 in
(1018 mb)
S 16.1 mph
(S 26 kph)
- 10SM
Time Weather Temperature Dewpoint Humidity Pressure Winds Precip Visibility


Weather for websites

WeatherForYou.com, LLC is not responsible for any damages or problems caused by this service. Current weather conditions are obtained from the closest station including government and personal stations which may have varying degrees of accuracy. Weather forecasts are derived from the NOAA NDFD. Like all things, this site belongs to Jesus Christ... He just trusts me to maintain it. If you have any questions or comments email webmaster@weatherforyou.com

Copyright © 2014, WeatherForYou.com LLC. All rights reserved.